Tracking 23645 objects as of 21-Sep-2021
HD Live streaming from Space Station
objects crossing your sky now

STARLINK-2113

Track STARLINK-2113 now!
10-day predictions
STARLINK-2113 is classified as:


NORAD ID: 47392
Int'l Code: 2021-005AV
Perigee: 552.8 km
Apogee: 556.0 km
Inclination: 53.1 °
Period: 95.6 minutes
Semi major axis: 6925 km
RCS: Unknown
Launch date: January 20, 2021
Source: United States (US)
Launch site: AIR FORCE EASTERN TEST RANGE (AFETR)
aabbcc
Your satellite tracking list
Your tracking list is empty




NASA's NSSDC Master Catalog

Two Line Element Set (TLE):
1 47392U 21005AV  21264.38221952 -.00000820  00000-0 -36140-4 0  9990
2 47392  53.0529 150.3500 0002297  64.8425 295.2802 15.06385521 37738
Source of the keplerian elements: AFSPC